KC3RWX Weather Reports


time (UTC)temp
C
wind
direction
speed
KPH
gust
KPH
rain 1hr
cm
rain 24hr
cm
rain mn
cm
humidity
%
barometer
mb
20260507030021 10 198 14.5 19.3 0.00 0.97 0.97 80 1011.7
20260507024525 10 199 12.9 19.3 0.00 0.97 0.97 80 1011.7
20260507023026 10 163 12.9 20.9 0.00 0.97 0.97 81 1011.6
20260507021527 10 178 8.0 25.7 0.00 0.97 0.97 81 1011.9
20260507020020 10 144 6.4 22.5 0.00 0.97 0.97 83 1012.1
20260507014539 10 138 9.7 20.9 0.00 0.97 0.97 83 1012.0
20260507013027 11 148 9.7 20.9 0.00 0.97 0.97 85 1012.2
20260507011528 11 164 9.7 24.1 0.00 0.97 0.97 85 1011.9
20260507010028 11 145 12.9 16.1 0.00 0.97 0.97 84 1012.0
20260507004536 11 167 6.4 17.7 0.00 0.97 0.97 84 1011.5
20260507003033 11 195 8.0 25.7 0.00 0.97 0.97 84 1011.0
20260507001527 11 160 12.9 30.6 0.00 0.97 0.97 85 1010.7
20260507000017 12 214 16.1 25.7 0.00 0.97 0.97 85 1010.3
20260506234532 12 214 8.0 22.5 0.00 0.97 0.97 85 1010.0
20260506233033 12 220 9.7 19.3 0.00 0.97 0.97 86 1009.9
20260506231545 13 192 11.3 22.5 0.00 0.97 0.97 85 1009.8
20260506230027 15 117 11.3 19.3 0.00 0.97 0.97 85 1009.4
20260506224516 16 108 9.7 16.1 0.00 0.97 0.97 86 1009.3
20260506223040 16 67 8.0 11.3 0.00 0.97 0.97 87 1009.2
20260506221528 16 72 6.4 11.3 0.00 0.97 0.97 88 1008.9
20260506220006 16 94 4.8 14.5 0.00 0.97 0.97 89 1008.6
20260506214511 16 52 4.8 8.0 0.00 0.97 0.97 90 1008.6
20260506213008 16 94 3.2 6.4 0.00 0.97 0.97 90 1008.3
20260506211514 16 108 8.0 17.7 0.00 0.97 0.97 89 1008.2
20260506210007 16 93 8.0 14.5 0.00 0.97 0.97 88 1008.0
20260506204508 16 58 6.4 14.5 0.00 0.97 0.97 88 1008.0
20260506203021 16 61 6.4 14.5 0.00 0.97 0.97 88 1007.9
20260506201529 16 63 6.4 9.7 0.00 0.97 0.97 89 1007.9
20260506200014 16 60 6.4 9.7 0.00 0.97 0.97 90 1008.0
20260506194506 16 52 9.7 11.3 0.00 0.97 0.97 90 1008.1
20260506193011 15 79 6.4 12.9 0.00 0.97 0.97 90 1008.1
20260506191515 15 72 4.8 11.3 0.00 0.97 0.97 90 1008.1
20260506190017 15 75 4.8 12.9 0.00 0.97 0.97 91 1008.3
20260506184517 15 48 6.4 14.5 0.03 0.97 0.97 91 1008.3
20260506183028 15 94 4.8 9.7 0.03 0.97 0.97 92 1008.2
20260506181514 15 81 4.8 9.7 0.05 0.97 0.97 92 1008.3
20260506180018 14 85 0.0 6.4 0.08 0.97 0.97 92 1008.6
20260506174519 14 98 1.6 6.4 0.10 0.94 0.94 92 1008.6
20260506173018 14 75 3.2 9.7 0.10 0.94 0.94 92 1008.6
20260506171511 14 89 4.8 14.5 0.08 0.91 0.91 91 1008.6
20260506170019 14 53 11.3 16.1 0.08 0.89 0.89 90 1008.7
20260506164522 15 58 11.3 22.5 0.03 0.84 0.84 89 1008.7
20260506163019 15 58 12.9 22.5 0.03 0.84 0.84 89 1008.7
20260506161522 15 52 9.7 32.2 0.05 0.84 0.84 89 1008.7
20260506160021 15 57 11.3 16.1 0.08 0.81 0.81 89 1008.7
20260506154522 15 51 12.9 17.7 0.15 0.81 0.81 89 1008.6
20260506153024 14 39 6.4 19.3 0.23 0.81 0.81 89 1008.4
20260506151522 14 349 9.7 24.1 0.23 0.79 0.79 89 1008.6
20260506150024 14 56 11.3 24.1 0.23 0.74 0.74 89 1008.8
20260506144521 15 37 12.9 24.1 0.20 0.66 0.66 88 1009.2
20260506143028 15 12 16.1 20.9 0.18 0.58 0.58 88 1009.0
20260506141520 15 30 16.1 29.0 0.15 0.56 0.56 87 1008.8
20260506140022 15 41 12.9 20.9 0.13 0.51 0.51 87 1008.9
20260506134522 14 119 1.6 4.8 0.15 0.46 0.46 87 1009.1
20260506133024 14 109 1.6 8.0 0.20 0.41 0.41 86 1009.3
20260506131516 15 120 4.8 12.9 0.28 0.41 0.41 85 1009.3
20260506130010 15 84 8.0 16.1 0.30 0.38 0.38 85 1009.3
20260506124506 15 61 9.7 14.5 0.25 0.30 0.30 84 1009.6
20260506123029 15 79 6.4 11.3 0.18 0.20 0.20 83 1009.8
20260506121525 15 70 4.8 9.7 0.13 0.13 0.13 81 1009.8
20260506120030 15 94 4.8 25.7 0.08 0.08 0.08 78 1009.7
20260506114524 16 58 12.9 22.5 0.05 0.05 0.05 77 1009.2
20260506113030 16 67 6.4 22.5 0.03 0.03 0.03 75 1009.1
20260506111527 16 39 9.7 24.1 0.00 0.00 0.00 72 1009.0
20260506110016 17 36 14.5 32.2 0.00 0.00 0.00 69 1009.0
20260506104526 17 5 12.9 30.6 0.00 0.00 0.00 66 1008.5
20260506103026 17 329 17.7 24.1 0.00 0.00 0.00 64 1008.2
20260506101526 17 39 14.5 25.7 0.00 0.00 0.00 64 1008.2
20260506100011 17 351 11.3 20.9 0.00 0.00 0.00 63 1008.2
20260506094520 17 13 9.7 20.9 0.00 0.00 0.00 63 1008.3
20260506093024 18 28 14.5 24.1 0.00 0.00 0.00 61 1008.3
20260506091513 18 348 19.3 30.6 0.00 0.00 0.00 60 1008.5
20260506090041 18 39 17.7 29.0 0.00 0.00 0.00 59 1008.4
20260506084517 18 360 19.3 29.0 0.00 0.00 0.00 58 1008.4
20260506083018 18 358 14.5 24.1 0.00 0.00 0.00 57 1008.5
20260506081521 18 37 12.9 25.7 0.00 0.00 0.00 57 1008.5
20260506073028 18 50 11.3 16.1 0.00 0.00 0.00 55 1008.6
20260506071522 18 81 6.4 11.3 0.00 0.00 0.00 53 1008.9
20260506061540 19 25 14.5 22.5 0.00 0.00 0.00 48 1009.6
20260506044529 19 32 8.0 20.9 0.00 0.00 0.00 46 1010.3
20260506043036 19 355 11.3 17.7 0.00 0.00 0.00 45 1010.1
20260506041530 18 20 6.4 9.7 0.00 0.00 0.00 47 1010.1
20260506040019 18 54 3.2 8.0 0.00 0.00 0.00 47 1010.2
20260506034524 18 44 6.4 19.3 0.00 0.00 0.00 46 1010.2
20260506033005 18 50 6.4 12.9 0.00 0.00 0.00 46 1010.2
20260506031508 18 56 3.2 9.7 0.00 0.00 0.00 47 1010.2